sat.trackr.live / text

‹ back to catalog

PELICAN-6

NORAD 66703 · 2025-276AP

PAYLOAD ACTIVE UNKNOWN

§ Identity

Operator
Country
US
Launch date
2025-11-28
Launch site
AFWTR
Launch vehicle
Mass (kg)
RCS (m²)

Purposes: earth_obs

External: N2YO · Heavens-Above · Gunter

§ Orbital elements

Epoch: 2026-05-25T02:33:21.436704Z

Period
94.17 min
Inclination
97.4121°
Eccentricity
0.0000701
Mean motion
15.29179273 rev/d
Perigee alt
477.8 km
Apogee alt
478.7 km
Semi-major
6,856.4 km
B*
3.1655e-4
RAAN
220.3351°
Arg perigee
28.4339°
Mean anomaly
331.6939°
Rev number
2,700

§ Raw data

PELICAN-61 66703U 25276AP  26145.10649811  .00008890  00000+0  31655-3 0  99992 66703  97.4121 220.3351 0000701  28.4339 331.6939 15.29179273 27000

JSON: /api/v1/satellites/66703 · /tle

For live sub-satellite position, see the globe view (requires WebGL).

§ Visibility from observer

Set your observer location to see the next 7 days of passes ≥ 10°. The values pass through the URL so the page stays shareable.

No JS? Fill the form by hand. The geolocation button needs JavaScript.